�N����,����,�~����,�C��,���x,�C��,����,���ϕ���,�ő�u�ԕ���,�ő厞����,���˗�,�I�_���x,�n�����x,�ő啗���N��,DTYPE
"23/05/05","00:10",0.0,16.4,77.8,1013.5,324.7,2.7,3.5,335.0,0.00,12.6,17.4,"00:05:52",1
"23/05/05","00:20",0.0,16.3,78.6,1013.3,308.1,2.2,3.1,315.8,0.00,12.6,17.3,"00:10:48",1
"23/05/05","00:30",0.0,16.1,79.4,1013.0,321.6,2.3,3.2,315.1,0.00,12.6,17.3,"00:28:26",1
"23/05/05","00:40",0.0,15.9,79.9,1013.0,304.1,1.5,3.1,317.9,0.00,12.5,17.4,"00:31:50",1
"23/05/05","00:50",0.0,15.8,80.3,1012.8,312.7,1.5,2.4,333.1,0.00,12.5,17.2,"00:43:54",1
"23/05/05","01:00",0.0,15.6,80.5,1012.8,265.7,0.8,1.6,251.0,0.00,12.3,17.3,"00:58:10",1
"23/05/05","01:10",0.0,15.4,81.1,1012.8,259.2,1.0,1.6,258.4,0.00,12.2,17.3,"01:00:32",1
"23/05/05","01:20",0.0,15.4,81.5,1012.8,296.1,1.0,1.3,316.2,0.00,12.3,17.1,"01:14:32",1
"23/05/05","01:30",0.0,15.4,81.8,1013.0,293.9,1.3,1.8,319.9,0.00,12.3,17.1,"01:25:44",1
"23/05/05","01:40",0.0,15.3,82.2,1012.3,287.0,1.5,2.5,301.3,0.00,12.3,17.0,"01:39:52",1
"23/05/05","01:50",0.0,15.1,82.3,1012.6,289.6,1.0,1.8,300.8,0.00,12.1,17.0,"01:40:08",1
"23/05/05","02:00",0.0,14.9,82.7,1012.3,297.3,0.8,1.6,332.3,0.00,12.0,17.1,"01:59:52",1
"23/05/05","02:10",0.0,14.6,83.3,1012.3,323.4,1.3,1.7,317.1,0.00,11.8,17.1,"02:02:16",1
"23/05/05","02:20",0.0,14.4,84.4,1012.6,299.0,1.2,2.2,318.5,0.00,11.8,16.8,"02:18:32",1
"23/05/05","02:30",0.0,14.2,85.3,1012.3,295.1,1.5,2.0,321.3,0.00,11.8,16.9,"02:20:08",1
"23/05/05","02:40",0.0,14.1,85.9,1012.6,307.3,1.5,2.1,311.6,0.00,11.8,16.9,"02:30:32",1
"23/05/05","02:50",0.0,14.0,86.3,1012.3,282.4,1.2,1.4,311.9,0.00,11.8,16.7,"02:40:16",1
"23/05/05","03:00",0.0,13.8,86.8,1012.3,296.9,1.0,1.8,326.1,0.00,11.7,16.7,"02:58:48",1
"23/05/05","03:10",0.0,13.6,87.2,1012.1,316.4,1.6,2.0,309.4,0.00,11.6,17.0,"03:03:06",1
"23/05/05","03:20",0.0,13.5,87.8,1012.1,305.1,1.5,1.8,324.8,0.00,11.6,16.7,"03:11:20",1
"23/05/05","03:30",0.0,13.3,88.2,1012.1,303.9,1.1,1.6,307.6,0.00,11.4,16.5,"03:22:00",1
"23/05/05","03:40",0.0,13.3,88.7,1012.1,317.4,1.7,2.0,312.2,0.00,11.5,16.5,"03:32:56",1
"23/05/05","03:50",0.0,13.2,89.2,1012.1,299.2,1.3,1.6,311.1,0.00,11.5,16.6,"03:43:54",1
"23/05/05","04:00",0.0,13.2,89.6,1011.9,305.8,1.6,2.0,303.7,0.00,11.6,16.6,"03:53:10",1
"23/05/05","04:10",0.0,13.2,89.8,1011.9,295.0,1.3,1.8,310.5,0.00,11.6,16.4,"04:01:12",1
"23/05/05","04:20",0.0,13.1,90.1,1012.3,314.4,1.6,2.0,323.9,0.00,11.6,16.4,"04:19:54",1
"23/05/05","04:30",0.0,13.3,90.4,1012.3,307.2,1.7,2.1,341.0,0.00,11.8,16.4,"04:22:32",1
"23/05/05","04:40",0.0,13.4,90.6,1012.1,298.4,1.6,2.4,315.3,0.00,11.9,16.4,"04:38:08",1
"23/05/05","04:50",0.0,13.6,90.6,1012.3,294.0,1.3,2.0,321.5,0.00,12.1,16.3,"04:45:28",1
"23/05/05","05:00",0.0,13.7,90.6,1012.1,299.7,1.5,2.1,320.3,0.00,12.2,16.3,"04:54:24",1
"23/05/05","05:10",0.0,13.9,90.6,1012.1,306.3,1.3,1.7,321.5,0.00,12.4,16.3,"05:08:16",1
"23/05/05","05:20",0.0,14.0,90.5,1012.3,318.0,1.3,1.7,319.4,0.00,12.5,16.2,"05:12:50",1
"23/05/05","05:30",0.0,14.1,90.5,1012.6,307.3,1.2,1.8,317.3,0.00,12.6,16.3,"05:25:12",1
"23/05/05","05:40",0.0,14.2,90.5,1013.0,302.4,1.2,1.7,311.3,0.00,12.7,16.3,"05:34:36",1
"23/05/05","05:50",0.0,14.3,90.3,1012.6,301.4,1.3,2.2,309.2,0.00,12.8,16.2,"05:47:30",1
"23/05/05","06:00",0.0,14.4,90.2,1012.6,287.5,1.2,2.1,312.6,0.00,12.9,16.2,"05:50:20",1
"23/05/05","06:10",0.0,14.4,90.0,1013.0,300.9,1.1,1.4,322.8,0.00,12.8,16.1,"06:06:00",1
"23/05/05","06:20",0.0,14.5,89.9,1012.8,317.3,1.5,2.2,317.7,0.01,12.9,16.3,"06:16:10",1
"23/05/05","06:30",0.0,14.6,89.7,1012.8,310.6,1.2,1.8,311.7,0.02,13.0,16.2,"06:23:56",1
"23/05/05","06:40",0.0,14.7,89.7,1013.0,291.3,1.3,1.7,309.6,0.03,13.1,16.2,"06:35:16",1
"23/05/05","06:50",0.0,15.2,89.6,1013.0,296.5,1.1,1.6,269.7,0.04,13.5,16.1,"06:42:34",1
"23/05/05","07:00",0.0,15.8,89.4,1013.3,302.4,0.7,1.2,270.6,0.07,14.1,16.1,"06:54:20",1
"23/05/05","07:10",0.0,16.6,89.0,1013.3,317.9,1.0,1.8,336.6,0.09,14.8,16.1,"07:04:56",1
"23/05/05","07:20",0.0,16.9,87.6,1013.5,322.2,1.1,1.8,311.0,0.09,14.9,16.1,"07:13:28",1
"23/05/05","07:30",0.0,17.1,86.2,1013.5,327.4,1.1,1.8,332.6,0.09,14.8,15.9,"07:29:04",1
"23/05/05","07:40",0.0,17.7,84.7,1013.5,314.0,0.6,1.3,333.8,0.11,15.1,16.1,"07:30:16",1
"23/05/05","07:50",0.0,18.1,83.1,1013.0,306.3,0.7,1.7,319.5,0.11,15.2,16.1,"07:48:16",1
"23/05/05","08:00",0.0,18.1,81.0,1012.8,344.5,1.0,2.0,340.0,0.10,14.8,16.2,"07:51:52",1
"23/05/05","08:10",0.0,18.2,79.2,1012.6,20.7,0.5,1.0,64.3,0.10,14.6,16.2,"08:02:56",1
"23/05/05","08:20",0.0,18.3,78.5,1012.3,120.4,0.3,1.0,116.0,0.13,14.5,16.2,"08:14:08",1
"23/05/05","08:30",0.0,18.7,77.6,1012.6,288.5,1.0,2.0,337.7,0.16,14.7,16.2,"08:28:08",1
"23/05/05","08:40",0.0,19.1,76.7,1012.3,241.9,0.6,1.3,247.4,0.17,15.0,16.3,"08:37:28",1
"23/05/05","08:50",0.0,19.9,74.8,1012.3,256.1,0.6,1.3,219.9,0.25,15.3,16.3,"08:40:24",1
"23/05/05","09:00",0.0,19.7,73.3,1012.1,264.7,1.1,2.2,243.1,0.22,14.8,16.2,"08:52:08",1
"23/05/05","09:10",0.0,20.1,72.4,1012.1,275.9,0.8,2.0,348.4,0.27,15.0,16.4,"09:09:12",1
"23/05/05","09:20",0.0,20.4,71.7,1011.6,91.3,0.8,1.9,37.3,0.26,15.2,16.2,"09:16:56",1
"23/05/05","09:30",0.0,20.6,71.6,1011.6,176.1,1.3,3.2,210.0,0.30,15.3,16.4,"09:23:36",1
"23/05/05","09:40",0.0,20.9,70.7,1011.4,225.0,1.1,2.7,318.9,0.34,15.4,16.4,"09:33:52",1
"23/05/05","09:50",0.0,21.1,69.2,1011.2,110.3,1.1,3.1,197.5,0.35,15.3,16.4,"09:41:04",1
"23/05/05","10:00",0.0,21.4,66.4,1011.2,267.9,1.1,2.4,331.2,0.32,14.9,16.3,"09:58:48",1
"23/05/05","10:10",0.0,21.6,66.2,1010.9,302.8,1.2,3.1,346.1,0.36,15.1,16.4,"10:00:48",1
"23/05/05","10:20",0.0,21.6,67.2,1010.7,128.9,1.3,2.8,119.1,0.34,15.3,16.6,"10:14:56",1
"23/05/05","10:30",0.0,21.9,64.9,1010.4,182.4,1.3,3.9,173.6,0.36,15.0,16.6,"10:23:12",1
"23/05/05","10:40",0.0,22.4,62.6,1010.2,154.7,1.5,3.2,147.6,0.39,15.0,16.7,"10:33:44",1
"23/05/05","10:50",0.0,22.6,60.3,1010.4,194.6,2.5,4.5,190.2,0.35,14.6,16.7,"10:42:48",1
"23/05/05","11:00",0.0,22.5,59.9,1010.0,224.3,2.1,4.0,238.8,0.34,14.4,16.7,"10:52:16",1
"23/05/05","11:10",0.0,22.5,58.9,1010.0,188.7,3.1,7.3,223.7,0.33,14.1,16.9,"11:07:36",1
"23/05/05","11:20",0.0,22.6,59.2,1009.7,178.0,2.8,5.2,230.2,0.25,14.3,16.9,"11:18:32",1
"23/05/05","11:30",0.0,23.0,58.4,1010.0,193.7,2.7,4.5,231.2,0.35,14.4,16.9,"11:27:12",1
"23/05/05","11:40",0.0,23.2,57.8,1009.5,179.5,2.5,5.4,136.2,0.35,14.5,17.2,"11:32:48",1
"23/05/05","11:50",0.0,23.9,56.7,1009.5,210.9,1.8,3.7,161.6,0.42,14.8,17.1,"11:49:28",1
"23/05/05","12:00",0.0,23.9,56.2,1009.5,210.1,2.5,5.6,222.3,0.41,14.7,17.1,"11:58:32",1
"23/05/05","12:10",0.0,23.9,56.4,1009.3,218.2,2.6,4.5,235.0,0.41,14.7,17.2,"12:04:16",1
"23/05/05","12:20",0.0,24.0,55.4,1008.8,208.1,2.5,5.6,212.4,0.40,14.6,17.3,"12:18:08",1
"23/05/05","12:30",0.0,24.2,55.7,1008.8,211.1,2.3,5.2,122.3,0.38,14.8,17.1,"12:26:24",1
"23/05/05","12:40",0.0,24.3,55.9,1008.8,216.1,2.7,5.6,206.7,0.40,15.0,17.3,"12:30:08",1
"23/05/05","12:50",0.0,24.6,56.0,1008.8,212.9,2.6,5.0,239.2,0.46,15.3,17.5,"12:46:24",1
"23/05/05","13:00",0.0,24.3,55.0,1008.3,190.0,3.2,7.8,133.9,0.33,14.7,17.4,"12:53:12",1
"23/05/05","13:10",0.0,24.8,55.1,1008.1,217.7,2.5,5.5,133.8,0.40,15.2,17.5,"13:00:02",1
"23/05/05","13:20",0.0,24.9,54.2,1007.8,189.5,3.2,5.0,219.6,0.44,15.1,17.5,"13:11:20",1
"23/05/05","13:30",0.0,25.6,53.3,1007.6,192.5,2.8,6.6,235.3,0.46,15.4,17.7,"13:26:32",1
"23/05/05","13:40",0.0,25.6,52.7,1007.8,197.3,2.7,5.2,234.5,0.46,15.3,17.7,"13:32:56",1
"23/05/05","13:50",0.0,26.0,51.5,1007.1,197.9,3.0,5.0,205.6,0.58,15.3,17.7,"13:46:32",1
"23/05/05","14:00",0.0,25.6,51.6,1006.9,195.6,3.5,6.7,196.1,0.49,14.9,17.8,"13:50:56",1
"23/05/05","14:10",0.0,26.4,50.2,1006.9,201.3,2.5,4.7,197.2,0.57,15.2,17.9,"14:01:52",1
"23/05/05","14:20",0.0,26.0,50.8,1006.9,245.0,2.3,5.0,298.7,0.46,15.1,17.7,"14:14:08",1
"23/05/05","14:30",0.0,26.1,48.4,1006.9,260.2,2.2,7.0,302.9,0.56,14.4,18.0,"14:29:28",1
"23/05/05","14:40",0.0,25.6,51.5,1006.7,247.7,1.8,4.3,265.1,0.31,14.9,18.1,"14:36:32",1
"23/05/05","14:50",0.0,25.4,50.5,1006.2,218.3,2.7,6.3,212.3,0.31,14.4,18.1,"14:42:40",1
"23/05/05","15:00",0.0,25.8,49.6,1006.0,228.3,2.1,4.3,245.7,0.42,14.5,18.4,"14:50:24",1
"23/05/05","15:10",0.0,25.7,50.6,1006.0,249.0,2.1,5.2,223.9,0.34,14.7,18.2,"15:03:12",1
"23/05/05","15:20",0.0,25.6,51.6,1006.0,246.2,2.2,5.0,201.4,0.27,14.9,18.4,"15:11:36",1
"23/05/05","15:30",0.0,25.5,50.2,1005.7,265.1,2.0,5.4,324.5,0.33,14.4,18.3,"15:24:00",1
"23/05/05","15:40",0.0,24.6,51.7,1006.4,271.3,2.7,7.5,250.9,0.21,14.1,18.6,"15:34:48",1
"23/05/05","15:50",0.0,24.4,53.3,1006.4,266.1,2.8,5.7,241.9,0.17,14.3,18.5,"15:40:02",1
"23/05/05","16:00",0.0,24.3,52.6,1006.2,242.1,3.1,6.2,245.0,0.21,14.0,18.6,"15:51:04",1
"23/05/05","16:10",0.0,24.2,54.0,1006.0,258.9,2.3,5.4,250.9,0.13,14.4,18.5,"16:05:44",1
"23/05/05","16:20",0.0,23.9,54.5,1006.4,281.0,3.0,6.2,326.3,0.09,14.2,18.7,"16:10:48",1
"23/05/05","16:30",0.0,23.8,55.5,1006.0,255.0,2.6,6.5,228.0,0.08,14.4,18.5,"16:22:16",1
"23/05/05","16:40",0.0,23.8,55.4,1006.0,283.1,2.3,5.6,318.3,0.09,14.4,18.6,"16:33:20",1
"23/05/05","16:50",0.0,23.7,55.6,1006.2,272.5,2.6,5.2,254.2,0.09,14.3,18.8,"16:47:04",1
"23/05/05","17:00",0.0,23.8,56.8,1006.2,275.0,2.1,5.7,223.9,0.09,14.8,18.6,"16:50:40",1
"23/05/05","17:10",0.0,23.7,56.2,1006.2,267.0,2.7,5.4,247.7,0.07,14.5,18.6,"17:00:56",1
"23/05/05","17:20",0.0,23.7,56.9,1006.2,266.0,2.2,5.1,315.6,0.05,14.7,18.8,"17:11:12",1
"23/05/05","17:30",0.0,23.8,57.6,1006.0,297.7,2.0,4.2,322.2,0.07,15.0,18.7,"17:26:56",1
"23/05/05","17:40",0.0,23.7,56.9,1006.0,263.4,3.0,5.5,246.0,0.06,14.7,18.5,"17:36:24",1
"23/05/05","17:50",0.0,23.5,56.8,1005.7,260.8,2.7,5.7,235.8,0.03,14.5,18.6,"17:46:08",1
"23/05/05","18:00",0.0,23.5,56.9,1005.7,274.5,2.6,6.3,242.4,0.04,14.5,18.5,"17:53:12",1
"23/05/05","18:10",0.0,23.5,56.7,1005.7,286.6,2.0,3.5,292.9,0.05,14.5,18.6,"18:07:44",1
"23/05/05","18:20",0.0,23.4,56.8,1005.7,264.8,1.8,4.2,238.4,0.04,14.4,18.6,"18:18:32",1
"23/05/05","18:30",0.0,23.3,55.8,1006.0,267.6,2.5,4.9,235.7,0.03,14.0,18.5,"18:28:40",1
"23/05/05","18:40",0.0,23.2,56.3,1005.7,271.7,1.8,4.0,275.3,0.02,14.1,18.4,"18:30:16",1
"23/05/05","18:50",0.0,23.2,55.5,1006.0,262.7,2.7,6.3,238.6,0.00,13.8,18.5,"18:44:40",1
"23/05/05","19:00",0.0,23.1,55.3,1006.2,260.6,3.2,6.4,317.9,0.00,13.7,18.5,"18:53:36",1
"23/05/05","19:10",0.0,22.9,56.1,1006.0,274.0,2.8,7.4,241.7,0.00,13.7,18.4,"19:05:20",1
"23/05/05","19:20",0.0,22.7,56.8,1006.2,299.6,2.7,6.2,343.1,0.00,13.7,18.4,"19:12:00",1
"23/05/05","19:30",0.0,22.5,57.4,1006.4,277.9,2.6,7.9,304.2,0.00,13.7,18.5,"19:28:00",1
"23/05/05","19:40",0.0,22.5,58.0,1006.4,285.0,3.1,6.8,332.2,0.00,13.9,18.4,"19:33:28",1
"23/05/05","19:50",0.0,22.4,58.6,1006.4,289.6,3.0,7.3,310.7,0.00,13.9,18.3,"19:45:44",1
"23/05/05","20:00",0.0,22.2,59.4,1006.7,294.6,2.8,5.7,332.9,0.00,14.0,18.5,"19:54:40",1
"23/05/05","20:10",0.0,22.0,60.4,1007.1,301.9,2.1,4.2,335.0,0.00,14.0,18.3,"20:01:04",1
"23/05/05","20:20",0.0,21.9,61.0,1006.9,297.3,2.1,4.1,261.1,0.00,14.1,18.2,"20:11:20",1
"23/05/05","20:30",0.0,21.9,61.7,1007.4,308.1,2.2,3.7,311.0,0.00,14.3,18.3,"20:23:04",1
"23/05/05","20:40",0.0,21.7,62.1,1007.1,283.5,1.3,3.5,344.5,0.00,14.2,18.2,"20:39:04",1
"23/05/05","20:50",0.0,21.4,62.6,1007.6,305.0,1.1,2.7,341.9,0.00,14.0,18.3,"20:47:36",1
"23/05/05","21:00",0.0,21.4,62.9,1007.1,288.1,1.2,4.1,332.8,0.00,14.1,18.2,"20:59:52",1
"23/05/05","21:10",0.0,21.5,62.3,1007.1,294.3,1.6,3.6,110.2,0.00,14.0,18.3,"21:08:40",1
"23/05/05","21:20",0.0,21.6,62.2,1007.4,248.1,1.6,5.8,352.4,0.00,14.1,18.2,"21:14:24",1
"23/05/05","21:30",0.0,21.4,62.4,1008.1,295.3,1.6,3.6,336.7,0.00,14.0,18.2,"21:27:12",1
"23/05/05","21:40",0.0,21.5,62.2,1007.6,302.5,2.2,4.8,329.9,0.00,14.0,18.0,"21:37:04",1
"23/05/05","21:50",0.0,21.4,62.6,1008.3,287.0,2.1,4.2,324.5,0.00,14.0,18.0,"21:43:28",1
"23/05/05","22:00",0.0,21.3,63.2,1008.1,280.2,2.7,6.5,323.0,0.00,14.1,18.1,"21:55:04",1
"23/05/05","22:10",0.0,21.4,63.4,1008.1,252.1,2.6,6.4,234.1,0.00,14.2,18.0,"22:06:56",1
"23/05/05","22:20",0.0,21.3,64.1,1007.8,311.1,2.2,4.4,327.1,0.00,14.3,18.1,"22:13:36",1
"23/05/05","22:30",0.0,21.0,65.2,1008.1,316.5,1.6,2.8,169.9,0.00,14.3,18.2,"22:29:44",1
"23/05/05","22:40",0.0,21.1,65.2,1007.6,217.4,1.6,5.0,229.9,0.00,14.4,17.8,"22:37:52",1
"23/05/05","22:50",0.0,21.1,64.9,1007.8,201.1,2.2,4.8,232.0,0.00,14.3,17.9,"22:42:24",1
"23/05/05","23:00",0.0,20.9,65.2,1007.6,256.6,1.5,4.5,186.2,0.00,14.2,18.0,"22:50:56",1
"23/05/05","23:10",0.0,20.6,66.4,1008.1,322.6,1.5,2.9,258.8,0.00,14.2,17.9,"23:08:48",1
"23/05/05","23:20",0.0,20.7,67.1,1007.8,234.4,1.8,3.4,209.7,0.00,14.4,17.8,"23:16:32",1
"23/05/05","23:30",0.0,20.5,67.3,1007.6,275.2,1.0,2.0,276.2,0.00,14.3,17.8,"23:24:00",1
"23/05/05","23:40",0.0,20.4,68.2,1007.8,266.3,1.1,2.8,287.4,0.00,14.4,17.7,"23:34:24",1
"23/05/05","23:50",0.0,20.4,68.9,1007.8,283.3,2.0,4.1,321.6,0.00,14.5,17.8,"23:45:36",1
"23/05/05","24:00",0.0,20.4,69.1,1007.6,286.5,1.8,3.1,261.1,0.00,14.6,17.8,"23:58:00",1
